Information on these data can be found in provided Readme document
Contact Info: Zachary Fasnacht (zachary.fasnacht@ssaihq.com); Nickolay Krotkov (nickolay.a.krotkov@nasa.gov); Lok Lamsal (lok.lamsal@nasa.gov)

FillValue: -999.
ScaleFactor: 1e15
Units: molecules/cm^2

Date(yyyy-mm-dd),City,Country,LonCenter,LatCenter,BoundingCoordinates,Median,Q1,Q3,Mean,Baseline_Median,Baseline_Q1,Baseline_Q3,Baseline_Mean,NumGoodSamples,NumTotalSamples
2015-01-01,Montevideo,Uruguay,-56.1667,-34.8833,[-56.6667 -35.3833 -55.6667 -34.3833],1.032,0.603,1.516,1.022,0.955,0.462,1.463,0.988,256.0,572.0
2015-01-02,Montevideo,Uruguay,-56.1667,-34.8833,[-56.6667 -35.3833 -55.6667 -34.3833],1.051,0.531,1.516,1.001,0.985,0.495,1.495,1.007,223.0,578.0
2015-01-03,Montevideo,Uruguay,-56.1667,-34.8833,[-56.6667 -35.3833 -55.6667 -34.3833],1.011,0.553,1.491,0.995,0.974,0.48,1.499,0.989,262.0,579.0
2015-01-04,Montevideo,Uruguay,-56.1667,-34.8833,[-56.6667 -35.3833 -55.6667 -34.3833],0.963,0.45,1.516,0.973,0.995,0.49,1.54,1.02,271.0,584.0
2015-01-05,Montevideo,Uruguay,-56.1667,-34.8833,[-56.6667 -35.3833 -55.6667 -34.3833],0.969,0.531,1.491,0.98,0.954,0.466,1.487,0.986,267.0,586.0
2015-01-06,Montevideo,Uruguay,-56.1667,-34.8833,[-56.6667 -35.3833 -55.6667 -34.3833],0.969,0.58,1.482,0.988,0.965,0.513,1.495,0.994,249.0,592.0
2015-01-07,Montevideo,Uruguay,-56.1667,-34.8833,[-56.6667 -35.3833 -55.6667 -34.3833],0.941,0.527,1.423,0.956,0.944,0.497,1.471,0.975,237.0,595.0
2015-01-08,Montevideo,Uruguay,-56.1667,-34.8833,[-56.6667 -35.3833 -55.6667 -34.3833],0.916,0.524,1.417,0.944,0.941,0.508,1.481,0.977,264.0,584.0
2015-01-09,Montevideo,Uruguay,-56.1667,-34.8833,[-56.6667 -35.3833 -55.6667 -34.3833],0.916,0.524,1.417,0.944,0.953,0.519,1.497,0.985,264.0,543.0
2015-01-10,Montevideo,Uruguay,-56.1667,-34.8833,[-56.6667 -35.3833 -55.6667 -34.3833],0.963,0.574,1.423,0.974,0.963,0.52,1.461,0.969,298.0,538.0
2015-01-11,Montevideo,Uruguay,-56.1667,-34.8833,[-56.6667 -35.3833 -55.6667 -34.3833],0.941,0.51,1.388,0.947,0.942,0.491,1.44,0.951,263.0,535.0
2015-01-12,Montevideo,Uruguay,-56.1667,-34.8833,[-56.6667 -35.3833 -55.6667 -34.3833],0.965,0.589,1.403,0.976,0.947,0.505,1.458,0.946,230.0,544.0
2015-01-13,Montevideo,Uruguay,-56.1667,-34.8833,[-56.6667 -35.3833 -55.6667 -34.3833],0.963,0.589,1.385,0.965,0.965,0.523,1.461,0.965,233.0,554.0
2015-01-14,Montevideo,Uruguay,-56.1667,-34.8833,[-56.6667 -35.3833 -55.6667 -34.3833],0.939,0.535,1.348,0.938,1.003,0.526,1.497,0.997,256.0,555.0
2015-01-15,Montevideo,Uruguay,-56.1667,-34.8833,[-56.6667 -35.3833 -55.6667 -34.3833],0.903,0.463,1.348,0.914,1.003,0.507,1.523,0.995,273.0,546.0
2015-01-16,Montevideo,Uruguay,-56.1667,-34.8833,[-56.6667 -35.3833 -55.6667 -34.3833],0.867,0.332,1.31,0.852,0.999,0.488,1.52,0.99,251.0,548.0
2015-01-17,Montevideo,Uruguay,-56.1667,-34.8833,[-56.6667 -35.3833 -55.6667 -34.3833],0.867,0.355,1.313,0.861,0.961,0.45,1.488,0.952,281.0,538.0
2015-01-18,Montevideo,Uruguay,-56.1667,-34.8833,[-56.6667 -35.3833 -55.6667 -34.3833],0.801,0.321,1.305,0.834,0.912,0.41,1.487,0.928,242.0,541.0
2015-01-19,Montevideo,Uruguay,-56.1667,-34.8833,[-56.6667 -35.3833 -55.6667 -34.3833],0.86,0.355,1.311,0.863,0.883,0.352,1.458,0.904,220.0,538.0
2015-01-20,Montevideo,Uruguay,-56.1667,-34.8833,[-56.6667 -35.3833 -55.6667 -34.3833],0.818,0.331,1.313,0.858,0.876,0.36,1.476,0.914,201.0,542.0
2015-01-21,Montevideo,Uruguay,-56.1667,-34.8833,[-56.6667 -35.3833 -55.6667 -34.3833],0.818,0.331,1.313,0.858,0.86,0.325,1.466,0.904,201.0,543.0
2015-01-22,Montevideo,Uruguay,-56.1667,-34.8833,[-56.6667 -35.3833 -55.6667 -34.3833],0.78,0.255,1.268,0.798,0.854,0.326,1.478,0.897,215.0,547.0
2015-01-23,Montevideo,Uruguay,-56.1667,-34.8833,[-56.6667 -35.3833 -55.6667 -34.3833],0.755,0.223,1.292,0.773,0.83,0.309,1.45,0.876,206.0,551.0
2015-01-24,Montevideo,Uruguay,-56.1667,-34.8833,[-56.6667 -35.3833 -55.6667 -34.3833],0.755,0.271,1.292,0.793,0.841,0.301,1.419,0.874,233.0,580.0
2015-01-25,Montevideo,Uruguay,-56.1667,-34.8833,[-56.6667 -35.3833 -55.6667 -34.3833],0.681,0.077,1.183,0.69,0.852,0.296,1.447,0.881,199.0,582.0
2015-01-26,Montevideo,Uruguay,-56.1667,-34.8833,[-56.6667 -35.3833 -55.6667 -34.3833],0.756,0.245,1.318,0.788,0.865,0.308,1.445,0.879,234.0,578.0
2015-01-27,Montevideo,Uruguay,-56.1667,-34.8833,[-56.6667 -35.3833 -55.6667 -34.3833],0.756,0.245,1.318,0.788,0.848,0.318,1.446,0.869,234.0,576.0
2015-01-28,Montevideo,Uruguay,-56.1667,-34.8833,[-56.6667 -35.3833 -55.6667 -34.3833],0.779,0.373,1.392,0.883,0.848,0.332,1.479,0.897,246.0,585.0
2015-01-29,Montevideo,Uruguay,-56.1667,-34.8833,[-56.6667 -35.3833 -55.6667 -34.3833],0.79,0.419,1.464,0.917,0.836,0.34,1.48,0.913,254.0,595.0
2015-01-30,Montevideo,Uruguay,-56.1667,-34.8833,[-56.6667 -35.3833 -55.6667 -34.3833],0.807,0.424,1.464,0.93,0.824,0.337,1.444,0.91,251.0,594.0
2015-01-31,Montevideo,Uruguay,-56.1667,-34.8833,[-56.6667 -35.3833 -55.6667 -34.3833],0.807,0.373,1.45,0.907,0.877,0.355,1.508,0.933,267.0,585.0
2015-02-01,Montevideo,Uruguay,-56.1667,-34.8833,[-56.6667 -35.3833 -55.6667 -34.3833],0.807,0.407,1.497,0.914,0.891,0.402,1.546,0.963,249.0,584.0
2015-02-02,Montevideo,Uruguay,-56.1667,-34.8833,[-56.6667 -35.3833 -55.6667 -34.3833],1.047,0.458,1.66,1.062,1.021,0.462,1.675,1.065,279.0,576.0
2015-02-03,Montevideo,Uruguay,-56.1667,-34.8833,[-56.6667 -35.3833 -55.6667 -34.3833],1.047,0.458,1.66,1.063,1.017,0.489,1.665,1.058,276.0,581.0
2015-02-04,Montevideo,Uruguay,-56.1667,-34.8833,[-56.6667 -35.3833 -55.6667 -34.3833],1.12,0.521,1.672,1.137,1.035,0.502,1.658,1.069,310.0,581.0
2015-02-05,Montevideo,Uruguay,-56.1667,-34.8833,[-56.6667 -35.3833 -55.6667 -34.3833],1.116,0.494,1.672,1.115,1.082,0.533,1.691,1.108,344.0,587.0
2015-02-06,Montevideo,Uruguay,-56.1667,-34.8833,[-56.6667 -35.3833 -55.6667 -34.3833],1.119,0.525,1.672,1.14,1.096,0.528,1.689,1.111,339.0,589.0
2015-02-07,Montevideo,Uruguay,-56.1667,-34.8833,[-56.6667 -35.3833 -55.6667 -34.3833],1.124,0.556,1.733,1.154,1.105,0.55,1.7,1.133,346.0,592.0
2015-02-08,Montevideo,Uruguay,-56.1667,-34.8833,[-56.6667 -35.3833 -55.6667 -34.3833],1.16,0.514,1.733,1.145,1.102,0.542,1.655,1.12,338.0,597.0
2015-02-09,Montevideo,Uruguay,-56.1667,-34.8833,[-56.6667 -35.3833 -55.6667 -34.3833],1.137,0.507,1.733,1.138,1.124,0.561,1.672,1.146,365.0,585.0
2015-02-10,Montevideo,Uruguay,-56.1667,-34.8833,[-56.6667 -35.3833 -55.6667 -34.3833],1.187,0.466,1.747,1.144,1.137,0.557,1.722,1.155,330.0,545.0
2015-02-11,Montevideo,Uruguay,-56.1667,-34.8833,[-56.6667 -35.3833 -55.6667 -34.3833],1.194,0.477,1.752,1.159,1.168,0.576,1.758,1.179,342.0,541.0
2015-02-12,Montevideo,Uruguay,-56.1667,-34.8833,[-56.6667 -35.3833 -55.6667 -34.3833],1.213,0.437,1.839,1.172,1.165,0.582,1.763,1.185,303.0,538.0
2015-02-13,Montevideo,Uruguay,-56.1667,-34.8833,[-56.6667 -35.3833 -55.6667 -34.3833],1.213,0.466,1.839,1.182,1.166,0.585,1.734,1.179,278.0,547.0
2015-02-14,Montevideo,Uruguay,-56.1667,-34.8833,[-56.6667 -35.3833 -55.6667 -34.3833],1.258,0.553,1.839,1.198,1.172,0.621,1.732,1.196,279.0,555.0
2015-02-15,Montevideo,Uruguay,-56.1667,-34.8833,[-56.6667 -35.3833 -55.6667 -34.3833],1.315,0.556,1.855,1.261,1.185,0.612,1.712,1.191,275.0,553.0
2015-02-16,Montevideo,Uruguay,-56.1667,-34.8833,[-56.6667 -35.3833 -55.6667 -34.3833],1.261,0.593,1.855,1.264,1.187,0.607,1.738,1.21,290.0,544.0
2015-02-17,Montevideo,Uruguay,-56.1667,-34.8833,[-56.6667 -35.3833 -55.6667 -34.3833],1.12,0.389,1.839,1.144,1.132,0.54,1.705,1.176,270.0,545.0
2015-02-18,Montevideo,Uruguay,-56.1667,-34.8833,[-56.6667 -35.3833 -55.6667 -34.3833],1.12,0.389,1.839,1.144,1.117,0.507,1.739,1.171,270.0,537.0
2015-02-19,Montevideo,Uruguay,-56.1667,-34.8833,[-56.6667 -35.3833 -55.6667 -34.3833],0.921,0.253,1.608,1.007,1.087,0.511,1.694,1.153,231.0,540.0
2015-02-20,Montevideo,Uruguay,-56.1667,-34.8833,[-56.6667 -35.3833 -55.6667 -34.3833],0.857,0.253,1.452,0.943,1.036,0.471,1.639,1.116,233.0,539.0
2015-02-21,Montevideo,Uruguay,-56.1667,-34.8833,[-56.6667 -35.3833 -55.6667 -34.3833],0.894,0.247,1.506,0.95,1.054,0.473,1.649,1.122,243.0,543.0
2015-02-22,Montevideo,Uruguay,-56.1667,-34.8833,[-56.6667 -35.3833 -55.6667 -34.3833],0.838,0.253,1.452,0.926,1.043,0.472,1.633,1.112,232.0,544.0
2015-02-23,Montevideo,Uruguay,-56.1667,-34.8833,[-56.6667 -35.3833 -55.6667 -34.3833],0.838,0.253,1.452,0.91,1.037,0.473,1.619,1.103,242.0,547.0
2015-02-24,Montevideo,Uruguay,-56.1667,-34.8833,[-56.6667 -35.3833 -55.6667 -34.3833],0.794,0.236,1.447,0.888,0.987,0.453,1.583,1.061,215.0,549.0
2015-02-25,Montevideo,Uruguay,-56.1667,-34.8833,[-56.6667 -35.3833 -55.6667 -34.3833],0.788,0.255,1.429,0.884,0.953,0.451,1.543,1.039,227.0,580.0
2015-02-26,Montevideo,Uruguay,-56.1667,-34.8833,[-56.6667 -35.3833 -55.6667 -34.3833],0.767,0.235,1.336,0.83,0.951,0.441,1.498,1.02,215.0,581.0
2015-02-27,Montevideo,Uruguay,-56.1667,-34.8833,[-56.6667 -35.3833 -55.6667 -34.3833],0.768,0.235,1.306,0.802,0.929,0.444,1.447,0.986,251.0,576.0
2015-02-28,Montevideo,Uruguay,-56.1667,-34.8833,[-56.6667 -35.3833 -55.6667 -34.3833],0.762,0.227,1.276,0.787,0.894,0.393,1.377,0.935,245.0,572.0
2015-03-01,Montevideo,Uruguay,-56.1667,-34.8833,[-56.6667 -35.3833 -55.6667 -34.3833],0.788,0.242,1.227,0.796,0.872,0.384,1.372,0.916,261.0,580.0
2015-03-02,Montevideo,Uruguay,-56.1667,-34.8833,[-56.6667 -35.3833 -55.6667 -34.3833],0.788,0.242,1.205,0.757,0.924,0.405,1.448,0.955,269.0,590.0
2015-03-03,Montevideo,Uruguay,-56.1667,-34.8833,[-56.6667 -35.3833 -55.6667 -34.3833],0.794,0.242,1.205,0.75,0.861,0.373,1.403,0.908,266.0,589.0
2015-03-04,Montevideo,Uruguay,-56.1667,-34.8833,[-56.6667 -35.3833 -55.6667 -34.3833],0.794,0.238,1.227,0.741,0.854,0.369,1.391,0.883,283.0,579.0
2015-03-05,Montevideo,Uruguay,-56.1667,-34.8833,[-56.6667 -35.3833 -55.6667 -34.3833],0.773,0.235,1.205,0.723,0.854,0.371,1.372,0.872,294.0,579.0
2015-03-06,Montevideo,Uruguay,-56.1667,-34.8833,[-56.6667 -35.3833 -55.6667 -34.3833],0.762,0.171,1.205,0.705,0.849,0.342,1.359,0.848,328.0,571.0
2015-03-07,Montevideo,Uruguay,-56.1667,-34.8833,[-56.6667 -35.3833 -55.6667 -34.3833],0.77,0.141,1.205,0.716,0.871,0.362,1.404,0.87,292.0,575.0
2015-03-08,Montevideo,Uruguay,-56.1667,-34.8833,[-56.6667 -35.3833 -55.6667 -34.3833],0.829,0.283,1.227,0.766,0.874,0.407,1.406,0.878,297.0,575.0
2015-03-09,Montevideo,Uruguay,-56.1667,-34.8833,[-56.6667 -35.3833 -55.6667 -34.3833],0.837,0.242,1.301,0.774,0.878,0.395,1.448,0.898,317.0,581.0
2015-03-10,Montevideo,Uruguay,-56.1667,-34.8833,[-56.6667 -35.3833 -55.6667 -34.3833],0.872,0.294,1.301,0.798,0.895,0.402,1.465,0.904,312.0,583.0
2015-03-11,Montevideo,Uruguay,-56.1667,-34.8833,[-56.6667 -35.3833 -55.6667 -34.3833],0.837,0.242,1.277,0.774,0.841,0.361,1.358,0.862,341.0,585.0
2015-03-12,Montevideo,Uruguay,-56.1667,-34.8833,[-56.6667 -35.3833 -55.6667 -34.3833],0.862,0.227,1.301,0.788,0.834,0.328,1.349,0.85,347.0,587.0
2015-03-13,Montevideo,Uruguay,-56.1667,-34.8833,[-56.6667 -35.3833 -55.6667 -34.3833],0.886,0.242,1.302,0.819,0.883,0.347,1.335,0.863,357.0,576.0
2015-03-14,Montevideo,Uruguay,-56.1667,-34.8833,[-56.6667 -35.3833 -55.6667 -34.3833],0.899,0.242,1.344,0.838,0.875,0.36,1.358,0.874,321.0,537.0
2015-03-15,Montevideo,Uruguay,-56.1667,-34.8833,[-56.6667 -35.3833 -55.6667 -34.3833],0.899,0.242,1.342,0.831,0.905,0.364,1.367,0.885,336.0,534.0
2015-03-16,Montevideo,Uruguay,-56.1667,-34.8833,[-56.6667 -35.3833 -55.6667 -34.3833],0.878,0.21,1.37,0.827,0.892,0.355,1.381,0.886,296.0,534.0
2015-03-17,Montevideo,Uruguay,-56.1667,-34.8833,[-56.6667 -35.3833 -55.6667 -34.3833],0.862,0.203,1.37,0.827,0.852,0.314,1.311,0.813,265.0,545.0
2015-03-18,Montevideo,Uruguay,-56.1667,-34.8833,[-56.6667 -35.3833 -55.6667 -34.3833],0.791,0.203,1.337,0.796,0.878,0.356,1.345,0.834,241.0,557.0
2015-03-19,Montevideo,Uruguay,-56.1667,-34.8833,[-56.6667 -35.3833 -55.6667 -34.3833],0.75,0.21,1.301,0.799,0.849,0.357,1.324,0.819,236.0,556.0
2015-03-20,Montevideo,Uruguay,-56.1667,-34.8833,[-56.6667 -35.3833 -55.6667 -34.3833],0.862,0.287,1.342,0.853,0.888,0.36,1.329,0.84,253.0,545.0
2015-03-21,Montevideo,Uruguay,-56.1667,-34.8833,[-56.6667 -35.3833 -55.6667 -34.3833],0.924,0.344,1.436,0.929,0.897,0.389,1.332,0.847,227.0,546.0
2015-03-22,Montevideo,Uruguay,-56.1667,-34.8833,[-56.6667 -35.3833 -55.6667 -34.3833],0.924,0.455,1.385,0.966,0.874,0.388,1.322,0.853,260.0,538.0
2015-03-23,Montevideo,Uruguay,-56.1667,-34.8833,[-56.6667 -35.3833 -55.6667 -34.3833],0.908,0.428,1.382,0.946,0.892,0.397,1.342,0.862,221.0,542.0
2015-03-24,Montevideo,Uruguay,-56.1667,-34.8833,[-56.6667 -35.3833 -55.6667 -34.3833],0.908,0.477,1.319,0.94,0.875,0.396,1.281,0.845,219.0,541.0
2015-03-25,Montevideo,Uruguay,-56.1667,-34.8833,[-56.6667 -35.3833 -55.6667 -34.3833],0.894,0.461,1.319,0.935,0.872,0.411,1.304,0.854,227.0,545.0
2015-03-26,Montevideo,Uruguay,-56.1667,-34.8833,[-56.6667 -35.3833 -55.6667 -34.3833],0.939,0.565,1.378,0.983,0.905,0.463,1.354,0.911,220.0,547.0
2015-03-27,Montevideo,Uruguay,-56.1667,-34.8833,[-56.6667 -35.3833 -55.6667 -34.3833],0.908,0.482,1.366,0.923,0.965,0.499,1.451,0.976,231.0,549.0
2015-03-28,Montevideo,Uruguay,-56.1667,-34.8833,[-56.6667 -35.3833 -55.6667 -34.3833],0.894,0.461,1.319,0.878,0.967,0.484,1.465,0.985,234.0,550.0
2015-03-29,Montevideo,Uruguay,-56.1667,-34.8833,[-56.6667 -35.3833 -55.6667 -34.3833],0.845,0.453,1.298,0.815,0.985,0.547,1.549,1.022,258.0,585.0
2015-03-30,Montevideo,Uruguay,-56.1667,-34.8833,[-56.6667 -35.3833 -55.6667 -34.3833],0.856,0.453,1.319,0.824,0.99,0.547,1.556,1.022,243.0,585.0
2015-03-31,Montevideo,Uruguay,-56.1667,-34.8833,[-56.6667 -35.3833 -55.6667 -34.3833],0.894,0.461,1.491,0.931,0.969,0.485,1.575,1.009,270.0,580.0
2015-04-01,Montevideo,Uruguay,-56.1667,-34.8833,[-56.6667 -35.3833 -55.6667 -34.3833],0.894,0.461,1.491,0.931,0.984,0.516,1.585,1.041,270.0,577.0
2015-04-02,Montevideo,Uruguay,-56.1667,-34.8833,[-56.6667 -35.3833 -55.6667 -34.3833],0.993,0.565,1.611,1.078,1.006,0.549,1.63,1.079,304.0,583.0
2015-04-03,Montevideo,Uruguay,-56.1667,-34.8833,[-56.6667 -35.3833 -55.6667 -34.3833],1.004,0.586,1.642,1.114,1.032,0.583,1.686,1.12,311.0,593.0
2015-04-04,Montevideo,Uruguay,-56.1667,-34.8833,[-56.6667 -35.3833 -55.6667 -34.3833],1.0,0.565,1.642,1.124,1.037,0.566,1.704,1.142,308.0,595.0
2015-04-05,Montevideo,Uruguay,-56.1667,-34.8833,[-56.6667 -35.3833 -55.6667 -34.3833],0.993,0.56,1.678,1.131,1.062,0.556,1.725,1.162,328.0,584.0
2015-04-06,Montevideo,Uruguay,-56.1667,-34.8833,[-56.6667 -35.3833 -55.6667 -34.3833],0.993,0.463,1.76,1.136,1.058,0.502,1.762,1.151,304.0,583.0
2015-04-07,Montevideo,Uruguay,-56.1667,-34.8833,[-56.6667 -35.3833 -55.6667 -34.3833],1.079,0.539,1.99,1.265,1.16,0.542,1.882,1.238,328.0,575.0
2015-04-08,Montevideo,Uruguay,-56.1667,-34.8833,[-56.6667 -35.3833 -55.6667 -34.3833],1.249,0.526,2.102,1.335,1.234,0.561,1.943,1.275,296.0,576.0
2015-04-09,Montevideo,Uruguay,-56.1667,-34.8833,[-56.6667 -35.3833 -55.6667 -34.3833],1.059,0.39,2.039,1.217,1.204,0.466,1.992,1.256,300.0,577.0
2015-04-10,Montevideo,Uruguay,-56.1667,-34.8833,[-56.6667 -35.3833 -55.6667 -34.3833],1.086,0.39,2.068,1.24,1.275,0.483,2.016,1.289,296.0,583.0
2015-04-11,Montevideo,Uruguay,-56.1667,-34.8833,[-56.6667 -35.3833 -55.6667 -34.3833],1.079,0.399,2.102,1.266,1.211,0.44,1.978,1.252,291.0,587.0
2015-04-12,Montevideo,Uruguay,-56.1667,-34.8833,[-56.6667 -35.3833 -55.6667 -34.3833],1.039,0.318,2.088,1.234,1.174,0.403,1.95,1.226,307.0,592.0
2015-04-13,Montevideo,Uruguay,-56.1667,-34.8833,[-56.6667 -35.3833 -55.6667 -34.3833],1.169,0.407,2.135,1.326,1.171,0.405,1.914,1.219,301.0,591.0
2015-04-14,Montevideo,Uruguay,-56.1667,-34.8833,[-56.6667 -35.3833 -55.6667 -34.3833],1.167,0.399,2.12,1.309,1.181,0.438,1.917,1.22,326.0,580.0
2015-04-15,Montevideo,Uruguay,-56.1667,-34.8833,[-56.6667 -35.3833 -55.6667 -34.3833],1.105,0.381,2.102,1.278,1.161,0.446,1.907,1.228,299.0,539.0
2015-04-16,Montevideo,Uruguay,-56.1667,-34.8833,[-56.6667 -35.3833 -55.6667 -34.3833],1.204,0.483,2.162,1.322,1.143,0.455,1.919,1.225,335.0,532.0
2015-04-17,Montevideo,Uruguay,-56.1667,-34.8833,[-56.6667 -35.3833 -55.6667 -34.3833],1.04,0.366,2.068,1.231,1.082,0.416,1.904,1.188,301.0,535.0
2015-04-18,Montevideo,Uruguay,-56.1667,-34.8833,[-56.6667 -35.3833 -55.6667 -34.3833],1.079,0.39,1.965,1.206,1.088,0.418,1.894,1.192,311.0,544.0
2015-04-19,Montevideo,Uruguay,-56.1667,-34.8833,[-56.6667 -35.3833 -55.6667 -34.3833],1.066,0.381,1.965,1.188,1.082,0.416,1.892,1.177,316.0,554.0
2015-04-20,Montevideo,Uruguay,-56.1667,-34.8833,[-56.6667 -35.3833 -55.6667 -34.3833],1.066,0.39,1.957,1.203,1.1,0.406,1.869,1.182,310.0,555.0
2015-04-21,Montevideo,Uruguay,-56.1667,-34.8833,[-56.6667 -35.3833 -55.6667 -34.3833],1.066,0.39,1.965,1.189,1.168,0.439,1.915,1.237,325.0,547.0
2015-04-22,Montevideo,Uruguay,-56.1667,-34.8833,[-56.6667 -35.3833 -55.6667 -34.3833],0.993,0.325,1.705,1.056,1.119,0.392,1.819,1.165,301.0,547.0
2015-04-23,Montevideo,Uruguay,-56.1667,-34.8833,[-56.6667 -35.3833 -55.6667 -34.3833],0.993,0.325,1.705,1.057,1.126,0.401,1.807,1.163,302.0,538.0
2015-04-24,Montevideo,Uruguay,-56.1667,-34.8833,[-56.6667 -35.3833 -55.6667 -34.3833],1.156,0.429,1.84,1.185,1.18,0.46,1.859,1.223,266.0,539.0
2015-04-25,Montevideo,Uruguay,-56.1667,-34.8833,[-56.6667 -35.3833 -55.6667 -34.3833],1.105,0.416,1.813,1.174,1.138,0.421,1.801,1.177,248.0,538.0
2015-04-26,Montevideo,Uruguay,-56.1667,-34.8833,[-56.6667 -35.3833 -55.6667 -34.3833],1.169,0.416,1.908,1.212,1.118,0.367,1.773,1.154,255.0,543.0
2015-04-27,Montevideo,Uruguay,-56.1667,-34.8833,[-56.6667 -35.3833 -55.6667 -34.3833],1.304,0.551,1.997,1.319,1.157,0.403,1.825,1.198,249.0,545.0
2015-04-28,Montevideo,Uruguay,-56.1667,-34.8833,[-56.6667 -35.3833 -55.6667 -34.3833],1.31,0.518,2.009,1.361,1.232,0.423,1.929,1.274,251.0,545.0
2015-04-29,Montevideo,Uruguay,-56.1667,-34.8833,[-56.6667 -35.3833 -55.6667 -34.3833],1.333,0.518,2.013,1.383,1.284,0.435,2.056,1.326,234.0,547.0
2015-04-30,Montevideo,Uruguay,-56.1667,-34.8833,[-56.6667 -35.3833 -55.6667 -34.3833],1.427,0.553,2.204,1.487,1.316,0.495,2.135,1.384,257.0,578.0
2015-05-01,Montevideo,Uruguay,-56.1667,-34.8833,[-56.6667 -35.3833 -55.6667 -34.3833],1.31,0.503,2.244,1.468,1.387,0.523,2.154,1.381,221.0,583.0
2015-05-02,Montevideo,Uruguay,-56.1667,-34.8833,[-56.6667 -35.3833 -55.6667 -34.3833],1.386,0.555,2.258,1.482,1.407,0.513,2.17,1.396,247.0,573.0
2015-05-03,Montevideo,Uruguay,-56.1667,-34.8833,[-56.6667 -35.3833 -55.6667 -34.3833],1.584,0.553,2.518,1.596,1.475,0.536,2.23,1.427,208.0,573.0
2015-05-04,Montevideo,Uruguay,-56.1667,-34.8833,[-56.6667 -35.3833 -55.6667 -34.3833],1.664,0.768,2.568,1.75,1.501,0.579,2.248,1.464,207.0,581.0
2015-05-05,Montevideo,Uruguay,-56.1667,-34.8833,[-56.6667 -35.3833 -55.6667 -34.3833],1.787,0.784,2.591,1.746,1.549,0.583,2.26,1.457,214.0,591.0
2015-05-06,Montevideo,Uruguay,-56.1667,-34.8833,[-56.6667 -35.3833 -55.6667 -34.3833],2.01,0.916,2.736,1.848,1.532,0.632,2.296,1.48,197.0,590.0
2015-05-07,Montevideo,Uruguay,-56.1667,-34.8833,[-56.6667 -35.3833 -55.6667 -34.3833],2.01,0.852,2.726,1.821,1.558,0.635,2.31,1.517,211.0,582.0
2015-05-08,Montevideo,Uruguay,-56.1667,-34.8833,[-56.6667 -35.3833 -55.6667 -34.3833],2.01,0.843,2.736,1.836,1.548,0.625,2.433,1.561,222.0,584.0
2015-05-09,Montevideo,Uruguay,-56.1667,-34.8833,[-56.6667 -35.3833 -55.6667 -34.3833],1.664,0.776,2.587,1.745,1.568,0.653,2.488,1.616,248.0,575.0
2015-05-10,Montevideo,Uruguay,-56.1667,-34.8833,[-56.6667 -35.3833 -55.6667 -34.3833],1.664,0.776,2.587,1.745,1.566,0.671,2.493,1.637,248.0,579.0
2015-05-11,Montevideo,Uruguay,-56.1667,-34.8833,[-56.6667 -35.3833 -55.6667 -34.3833],1.752,1.036,2.596,1.808,1.672,0.785,2.578,1.706,257.0,578.0
2015-05-12,Montevideo,Uruguay,-56.1667,-34.8833,[-56.6667 -35.3833 -55.6667 -34.3833],1.833,1.067,2.726,1.903,1.683,0.846,2.562,1.72,263.0,584.0
2015-05-13,Montevideo,Uruguay,-56.1667,-34.8833,[-56.6667 -35.3833 -55.6667 -34.3833],1.819,1.067,2.705,1.878,1.654,0.784,2.57,1.697,257.0,590.0
2015-05-14,Montevideo,Uruguay,-56.1667,-34.8833,[-56.6667 -35.3833 -55.6667 -34.3833],1.93,1.067,2.736,1.918,1.697,0.797,2.635,1.744,276.0,591.0
2015-05-15,Montevideo,Uruguay,-56.1667,-34.8833,[-56.6667 -35.3833 -55.6667 -34.3833],1.707,0.955,2.673,1.844,1.612,0.789,2.602,1.734,273.0,594.0
2015-05-16,Montevideo,Uruguay,-56.1667,-34.8833,[-56.6667 -35.3833 -55.6667 -34.3833],1.707,0.955,2.673,1.844,1.624,0.844,2.614,1.759,273.0,582.0
2015-05-17,Montevideo,Uruguay,-56.1667,-34.8833,[-56.6667 -35.3833 -55.6667 -34.3833],1.634,0.929,2.873,1.898,1.695,0.916,2.775,1.88,247.0,543.0
2015-05-18,Montevideo,Uruguay,-56.1667,-34.8833,[-56.6667 -35.3833 -55.6667 -34.3833],1.971,1.077,3.191,2.178,1.795,0.95,2.878,1.953,278.0,534.0
2015-05-19,Montevideo,Uruguay,-56.1667,-34.8833,[-56.6667 -35.3833 -55.6667 -34.3833],2.003,1.077,3.269,2.19,1.738,0.916,2.817,1.896,249.0,533.0
2015-05-20,Montevideo,Uruguay,-56.1667,-34.8833,[-56.6667 -35.3833 -55.6667 -34.3833],1.959,1.036,3.154,2.146,1.78,0.936,2.805,1.909,232.0,542.0
2015-05-21,Montevideo,Uruguay,-56.1667,-34.8833,[-56.6667 -35.3833 -55.6667 -34.3833],1.833,0.913,3.104,2.071,1.715,0.839,2.788,1.863,254.0,551.0
2015-05-22,Montevideo,Uruguay,-56.1667,-34.8833,[-56.6667 -35.3833 -55.6667 -34.3833],1.929,0.929,3.222,2.083,1.7,0.836,2.8,1.836,261.0,548.0
2015-05-23,Montevideo,Uruguay,-56.1667,-34.8833,[-56.6667 -35.3833 -55.6667 -34.3833],1.959,1.036,3.191,2.107,1.693,0.858,2.791,1.817,258.0,540.0
2015-05-24,Montevideo,Uruguay,-56.1667,-34.8833,[-56.6667 -35.3833 -55.6667 -34.3833],2.12,1.1,3.443,2.262,1.665,0.856,2.735,1.784,245.0,543.0
2015-05-25,Montevideo,Uruguay,-56.1667,-34.8833,[-56.6667 -35.3833 -55.6667 -34.3833],2.308,1.104,3.51,2.314,1.819,0.885,2.843,1.881,273.0,535.0
2015-05-26,Montevideo,Uruguay,-56.1667,-34.8833,[-56.6667 -35.3833 -55.6667 -34.3833],2.439,0.866,3.923,2.398,1.833,0.822,2.972,1.951,233.0,536.0
2015-05-27,Montevideo,Uruguay,-56.1667,-34.8833,[-56.6667 -35.3833 -55.6667 -34.3833],2.325,0.882,3.863,2.325,1.808,0.793,2.996,1.919,214.0,533.0
2015-05-28,Montevideo,Uruguay,-56.1667,-34.8833,[-56.6667 -35.3833 -55.6667 -34.3833],2.345,0.866,3.863,2.346,1.826,0.812,3.025,1.951,230.0,536.0
2015-05-29,Montevideo,Uruguay,-56.1667,-34.8833,[-56.6667 -35.3833 -55.6667 -34.3833],2.433,0.882,3.863,2.355,1.842,0.779,3.019,1.914,203.0,542.0
2015-05-30,Montevideo,Uruguay,-56.1667,-34.8833,[-56.6667 -35.3833 -55.6667 -34.3833],2.439,1.1,3.863,2.436,2.001,0.917,3.138,2.038,183.0,543.0
2015-05-31,Montevideo,Uruguay,-56.1667,-34.8833,[-56.6667 -35.3833 -55.6667 -34.3833],2.439,1.145,3.863,2.422,2.035,0.95,3.189,2.044,199.0,545.0
2015-06-01,Montevideo,Uruguay,-56.1667,-34.8833,[-56.6667 -35.3833 -55.6667 -34.3833],2.345,1.213,3.699,2.401,2.018,0.932,3.09,2.036,224.0,575.0
2015-06-02,Montevideo,Uruguay,-56.1667,-34.8833,[-56.6667 -35.3833 -55.6667 -34.3833],2.209,0.882,3.293,2.074,1.963,0.88,2.987,1.931,193.0,580.0
2015-06-03,Montevideo,Uruguay,-56.1667,-34.8833,[-56.6667 -35.3833 -55.6667 -34.3833],2.169,1.001,3.293,2.066,2.021,0.933,3.056,2.007,199.0,573.0
2015-06-04,Montevideo,Uruguay,-56.1667,-34.8833,[-56.6667 -35.3833 -55.6667 -34.3833],2.292,1.092,3.444,2.203,2.04,0.97,3.082,2.039,187.0,571.0
2015-06-05,Montevideo,Uruguay,-56.1667,-34.8833,[-56.6667 -35.3833 -55.6667 -34.3833],2.308,1.174,3.434,2.281,2.088,1.011,3.134,2.108,199.0,579.0
2015-06-06,Montevideo,Uruguay,-56.1667,-34.8833,[-56.6667 -35.3833 -55.6667 -34.3833],2.209,1.174,3.418,2.276,2.125,1.072,3.192,2.195,208.0,591.0
2015-06-07,Montevideo,Uruguay,-56.1667,-34.8833,[-56.6667 -35.3833 -55.6667 -34.3833],2.154,1.174,3.434,2.306,2.146,1.205,3.211,2.232,221.0,590.0
2015-06-08,Montevideo,Uruguay,-56.1667,-34.8833,[-56.6667 -35.3833 -55.6667 -34.3833],2.292,1.223,3.453,2.509,2.207,1.233,3.268,2.318,235.0,580.0
2015-06-09,Montevideo,Uruguay,-56.1667,-34.8833,[-56.6667 -35.3833 -55.6667 -34.3833],2.069,1.213,3.434,2.479,2.085,1.134,3.267,2.263,219.0,581.0
2015-06-10,Montevideo,Uruguay,-56.1667,-34.8833,[-56.6667 -35.3833 -55.6667 -34.3833],1.896,0.818,3.12,2.158,2.041,1.069,3.133,2.161,249.0,575.0
2015-06-11,Montevideo,Uruguay,-56.1667,-34.8833,[-56.6667 -35.3833 -55.6667 -34.3833],1.828,0.682,3.199,2.122,1.986,1.004,3.078,2.145,239.0,579.0